Flag for Germany Weather past 2 weeks in Jena, Thuringia, Germany

32 °F

Snow. Fog.

Feels Like: 26 °F
Forecast: 33 / 43 °F
Wind: 7 mph from Northeast

Location: Erfurt-Bindersleben

Current Time: Oct 14, 2015 at 6:25:32 AM

Latest Report: Oct 14, 2015 at 5:50 AM

Visibility: 0 mi

Pressure: 30.01 "Hg

Humidity: 100%

Dew point: 32 °F

Location of JenaLocation

Historic Weather in Jena — Graph


Jena temperature yesterday

Maximum temperature yesterday: 37 °F (at 12:50 PM)
Minimum temperature yesterday: 30 °F (at 4:20 AM)
Average temperature yesterday: 35 °F

Past Weeks' High & Low Weather Summary

High70 °F (Oct 3, 3:50 PM)100% (Sep 30, 6:20 AM)30.63 "Hg (Sep 30, 6:20 AM)
Low27 °F (Oct 12, 7:50 AM)41% (Oct 1, 2:20 PM)29.71 "Hg (Oct 6, 4:20 PM)
Average49 °F76%30.13 "Hg
* Reported Sep 29 5:20 AM — Oct 14 5:20 AM, Jena, Weather by CustomWeather, © 2015

Note: Actual official high and low records may vary slightly from our data, if they occured in-between our weather recording intervals... More about our weather records


Jena weather history for previous 24 hours

Time TempWeatherWind HumidityBarometerVisibility
5:20 AM
Wed, Oct 14
34 °FLight snow. Fog.7 mph93%30.01 "Hg1 mi
4:50 AM34 °FLight snow. Fog.7 mph93%30.04 "Hg1 mi
4:20 AM34 °FLight snow. Fog.9 mph93%30.04 "Hg2 mi
3:50 AM34 °FLight rain. Low clouds.7 mph93%30.04 "Hg4 mi
3:20 AM36 °FLight rain. Low clouds.7 mph87%30.04 "Hg4 mi
2:50 AM36 °FChilly.8 mph87%30.04 "HgN/A
2:20 AM36 °FLight rain. Low clouds.9 mph87%30.04 "Hg4 mi
1:50 AM34 °FLight rain. Low clouds.7 mph93%30.04 "Hg4 mi
1:20 AM36 °FOvercast.6 mph87%30.07 "Hg4 mi
12:50 AM36 °FOvercast.7 mph87%30.07 "Hg5 mi
11:20 PM
Tue, Oct 13
36 °FOvercast.7 mph87%30.07 "HgN/A
10:50 PM36 °FOvercast.8 mph81%30.07 "HgN/A
10:20 PM36 °FOvercast.10 mph81%30.04 "HgN/A
9:50 PM36 °FOvercast.10 mph87%30.07 "HgN/A
9:20 PM36 °FOvercast.10 mph87%30.07 "HgN/A
8:50 PM36 °FOvercast.9 mph87%30.07 "HgN/A
8:20 PM36 °FOvercast.10 mph87%30.07 "HgN/A
7:50 PM36 °FOvercast.9 mph87%30.07 "HgN/A
7:20 PM36 °FOvercast.8 mph87%30.07 "HgN/A
6:50 PM37 °FOvercast.10 mph81%30.07 "HgN/A
6:20 PM37 °FOvercast.8 mph81%30.04 "HgN/A
5:50 PM37 °FOvercast.9 mph81%30.04 "HgN/A
5:20 PM37 °FOvercast.8 mph81%30.04 "HgN/A
4:50 PM37 °FOvercast.10 mph81%30.04 "HgN/A
4:20 PM37 °FOvercast.8 mph81%30.04 "HgN/A
3:50 PM37 °FOvercast.9 mph81%30.04 "HgN/A
3:20 PM37 °FOvercast.8 mph81%30.04 "HgN/A
2:50 PM37 °FOvercast.8 mph81%30.07 "HgN/A
2:20 PM37 °FOvercast.8 mph81%30.07 "HgN/A
1:50 PM37 °FOvercast.8 mph81%30.07 "HgN/A
1:20 PM37 °FOvercast.8 mph81%30.07 "HgN/A
12:50 PM37 °FOvercast.8 mph81%30.07 "HgN/A
12:20 PM36 °FOvercast.7 mph81%30.07 "HgN/A
11:50 AM36 °FOvercast.7 mph81%30.07 "HgN/A
11:20 AM36 °FLow clouds.7 mph81%30.07 "Hg5 mi
10:50 AM36 °FLow clouds.8 mph81%30.07 "Hg4 mi
10:20 AM34 °FFog.9 mph93%30.07 "Hg4 mi
9:50 AM34 °FFog.7 mph87%30.07 "Hg2 mi
9:20 AM34 °FFog.7 mph87%30.07 "Hg2 mi
8:50 AM32 °FIce fog.8 mph93%30.07 "Hg2 mi
8:20 AM32 °FIce fog.9 mph93%30.04 "Hg2 mi
7:50 AM32 °FIce fog.8 mph93%30.04 "Hg3 mi
7:20 AM32 °FIce fog.9 mph93%30.04 "Hg3 mi
6:50 AM32 °FLow clouds.8 mph93%30.04 "Hg4 mi
6:20 AM32 °FPassing clouds.3 mph93%30.04 "Hg4 mi
Weather by CustomWeather, © 2015

See weather overviewHow to use our weather pages